Simultaneous Nadir Overpasses (SNOs) Predictions

Prediction of SNOs between GOES-16 and LANDSAT-8 Satellite Orbit:

Table of predicted SNOs for the next 14.0 days since TLE Epoch: 4/23/2022
Index Date Time (GOES-16) GOES-16 Lat,Lon LANDSAT-8 Lat,Lon Distance(km) Time Diff (sec)
1 04/24/2022 14:56:45 0.05, -75.22 -0.84, -70.97 483.69 80
2 04/25/2022 03:18:09 -0.05, -75.20 -0.26, -76.16 108.81 80
3 04/27/2022 03:03:17 -0.05, -75.20 0.40, -73.20 228.54 80
4 04/27/2022 15:24:32 0.05, -75.23 0.71, -78.35 355.10 80
5 04/29/2022 15:12:19 0.05, -75.24 0.11, -75.38 16.88 80
6 05/01/2022 15:02:47 0.05, -75.26 -0.57, -72.42 322.40 80
7 05/02/2022 03:24:09 -0.05, -75.24 -0.58, -77.60 269.30 80
8 05/04/2022 03:09:18 -0.04, -75.26 0.12, -74.65 70.16 80
9 05/06/2022 02:57:05 -0.03, -75.28 0.76, -71.68 409.88 80
10 05/06/2022 15:18:19 0.03, -75.31 0.34, -76.84 173.39 80
